SP5IZJ-2 Weather Reports


time (UTC)temp
C
wind
direction
speed
KPH
gust
KPH
rain 1hr
cm
rain 24hr
cm
rain mn
cm
humidity
%
barometer
mb
20260503072113 21 0 22.5 37.0 0.00 0.00 0.00 36 1010.6
20260503071413 21 0 22.5 33.8 0.00 0.00 0.00 37 1010.5
20260503070713 21 0 22.5 33.8 0.00 0.00 0.00 37 1010.5
20260503053620 20 0 0.0 4.8 0.00 0.00 0.00 47 1010.8
20260503052218 18 0 1.6 8.0 0.00 0.00 0.00 48 1010.8
20260503051523 18 0 1.6 8.0 0.00 0.00 0.00 48 1010.8
20260503044721 17 359 0.0 0.0 0.00 0.00 0.00 55 1011.0
20260503035820 6 90 0.0 0.0 0.00 0.00 0.00 74 1011.2
20260503034418 6 90 0.0 0.0 0.00 0.00 0.00 73 1011.3
20260503033719 6 90 0.0 0.0 0.00 0.00 0.00 73 1011.0
20260503033021 6 90 0.0 0.0 0.00 0.00 0.00 74 1011.0
20260503032326 6 90 0.0 0.0 0.00 0.00 0.00 73 1011.2
20260503030919 6 359 0.0 0.0 0.00 0.00 0.00 72 1010.9
20260503030220 6 359 0.0 0.0 0.00 0.00 0.00 72 1010.9
20260503022720 6 90 0.0 0.0 0.00 0.00 0.00 69 1010.9
20260503022021 7 90 0.0 0.0 0.00 0.00 0.00 69 1011.0
20260503020621 100 359 0.0 0.0 0.00 0.00 0.00 100
20260503015921 7 90 0.0 0.0 0.00 0.00 0.00 70 1011.0
20260503015223 7 90 0.0 0.0 0.00 0.00 0.00 69 1011.3
20260503013826 7 90 0.0 0.0 0.00 0.00 0.00 67 1011.2
20260503013122 7 90 0.0 0.0 0.00 0.00 0.00 67 1011.2
20260503011722 7 90 0.0 0.0 0.00 0.00 0.00 65 1011.1
20260503005623 7 90 0.0 0.0 0.00 0.00 0.00 65 1011.3
20260503004923 7 90 0.0 0.0 0.00 0.00 0.00 65 1011.3
20260503003523 7 359 0.0 0.0 0.00 0.00 0.00 64 1011.2
20260503002826 8 359 0.0 0.0 0.00 0.00 0.00 63 1011.2
20260503000724 7 90 0.0 0.0 0.00 0.00 0.00 62 1011.3
20260502234624 7 90 0.0 0.0 0.00 0.00 0.00 61 1011.0
20260502233925 8 90 0.0 0.0 0.00 0.00 0.00 60 1011.1
20260502232529 8 90 0.0 0.0 0.00 0.00 0.00 60 1011.3
20260502231825 8 90 0.0 0.0 0.00 0.00 0.00 60 1011.3
20260502230425 8 90 0.0 0.0 0.00 0.00 0.00 60 1011.2
20260502221529 9 90 0.0 0.0 0.00 0.00 0.00 54 1011.4
20260502220127 10 90 0.0 0.0 0.00 0.00 0.00 53 1011.5
20260502214030 10 90 0.0 0.0 0.00 0.00 0.00 53 1011.4
20260502213328 10 90 0.0 0.0 0.00 0.00 0.00 53 1011.4
20260502211228 11 90 0.0 0.0 0.00 0.00 0.00 51 1011.4
20260502205833 11 90 0.0 0.0 0.00 0.00 0.00 50 1011.6
20260502203731 11 90 0.0 0.0 0.00 0.00 0.00 48 1011.6
20260502202356 11 90 0.0 0.0 0.00 0.00 0.00 48 1011.7
20260502201015 12 90 0.0 0.0 0.00 0.00 0.00 48 1011.6
20260502191416 13 90 0.0 0.0 0.00 0.00 0.00 43 1011.9
20260502190716 14 90 0.0 0.0 0.00 0.00 0.00 42 1011.8
20260502185958 15 90 0.0 0.0 0.00 0.00 0.00 41 1011.7
20260502184617 15 90 0.0 0.0 0.00 0.00 0.00 40 1011.7
20260502183917 15 359 0.0 0.0 0.00 0.00 0.00 39 1011.7
20260502181033 18 90 0.0 0.0 0.00 0.00 0.00 33 1011.7
20260502180333 19 90 0.0 0.0 0.00 0.00 0.00 32 1011.5
20260502163944 29 45 0.0 6.4 0.00 0.00 0.00 22 1011.7
20260502163235 30 23 0.0 3.2 0.00 0.00 0.00 22 1011.7
20260502151539 30 23 6.4 14.5 0.00 0.00 0.00 22 1012.5
20260502102849 26 23 4.8 11.3 0.00 0.00 0.00 28 1016.0
20260502091146 25 0 9.7 20.9 0.00 0.00 0.00 30 1016.9